Weather History for Laramie, WY

Change the Weather History Date:

Friday, September 27, 2013

  Actual Average Record
Temperature  
Mean Temperature 42 °F 49 °F  
Max Temperature 49 °F 64 °F 80 °F (2014)
Min Temperature 35 °F 34 °F 8 °F (1996)
Degree Days  
Heating Degree Days 23 16  
Month to date heating degree days 208 301  
Since 1 July heating degree days 279 473  
Cooling Degree Days 0 0  
Month to date cooling degree days 24 0  
Year to date cooling degree days 162 66  
Moisture  
Dew Point 36 °F    
Average Humidity 79    
Maximum Humidity 100    
Minimum Humidity 57    
Precipitation  
Precipitation 0.05 in 0.03 in 0.19 in (1982)
Month to date precipitation 3.05 1.01  
Year to date precipitation 9.38 9.16  
Sea Level Pressure  
Sea Level Pressure 29.77 in    
Wind  
Wind Speed 14 mph (WSW)    
Max Wind Speed 25 mph    
Max Gust Speed 30 mph    
Visibility 9 miles    
Events Rain    
T = Trace of Precipitation, MM = Missing Value Source: NWS Daily Summary

Daily Weather History Graph

Daily Weather History Graph

Search for Another Location

Airport:

Trip Planner

Search our weather history database for the weather conditions in past years. The results will help you decide how hot, cold, wet, or windy it might be!

Date:

Astronomy

Sep. 27, 2013 Rise Set
Actual Time 6:55 AM MDT 6:50 PM MDT
Civil Twilight 6:28 AM MDT 7:18 PM MDT
Nautical Twilight 5:55 AM MDT 7:50 PM MDT
Astronomical Twilight 5:23 AM MDT 8:22 PM MDT
Moon No Moon Rise 2:34 PM MDT (9/27)
Length of Visible Light 12h 50m
Length of Day
11h 55m
Last Quarter, 44% of the Moon is Illuminated
Sep 27
Last Quarter
Oct 4
New
Oct 11
First Quarter
Oct 18
Full
Oct 26
Last Quarter

Hourly Weather History & Observations

Time (MDT) Temp. Windchill Dew Point Humidity Pressure Visibility Wind Dir Wind Speed Gust Speed Precip Events Conditions
12:53 AM 48.0 °F - 42.1 °F 80% 29.57 in 10.0 mi Calm Calm - N/A   Clear
1:53 AM 48.0 °F - 44.1 °F 86% 29.55 in 10.0 mi SE 11.5 mph - N/A   Partly Cloudy
2:53 AM 46.0 °F 39.9 °F 43.0 °F 89% 29.52 in 10.0 mi ESE 13.8 mph - N/A   Partly Cloudy
3:30 AM 44.6 °F 37.8 °F 44.6 °F 100% 29.80 in 9.0 mi ESE 15.0 mph - N/A   Scattered Clouds
3:43 AM 44.6 °F 37.8 °F 42.8 °F 93% 29.80 in 10.0 mi ESE 15.0 mph - N/A   Mostly Cloudy
3:53 AM 45.0 °F 38.9 °F 43.0 °F 93% 29.55 in 10.0 mi ESE 12.7 mph - N/A   Overcast
4:06 AM 44.6 °F 39.7 °F 42.8 °F 93% 29.81 in 10.0 mi East 9.2 mph - N/A   Overcast
4:26 AM 42.8 °F 36.6 °F 41.0 °F 93% 29.81 in 10.0 mi East 11.5 mph - N/A   Overcast
4:53 AM 44.1 °F 36.8 °F 39.9 °F 85% 29.57 in 10.0 mi ESE 16.1 mph - N/A   Overcast
5:53 AM 42.1 °F 35.7 °F 37.9 °F 85% 29.59 in 10.0 mi ESE 11.5 mph - N/A   Mostly Cloudy
6:08 AM 41.0 °F 34.3 °F 37.4 °F 87% 29.79 in 10.0 mi ESE 11.5 mph - N/A   Mostly Cloudy
6:50 AM 41.0 °F 34.3 °F 37.4 °F 87% 29.82 in 10.0 mi SE 11.5 mph - N/A   Mostly Cloudy
6:53 AM 41.0 °F 34.3 °F 37.0 °F 86% 29.63 in 10.0 mi SE 11.5 mph - N/A   Mostly Cloudy
7:23 AM 42.8 °F 38.6 °F 37.4 °F 81% 29.84 in 10.0 mi SSE 6.9 mph - N/A   Overcast
7:53 AM 45.0 °F 39.3 °F 41.0 °F 86% 29.62 in 10.0 mi South 11.5 mph - 0.00 in   Overcast
8:14 AM 44.6 °F 37.4 °F 41.0 °F 87% 29.85 in 7.0 mi South 16.1 mph - 0.00 in Rain Light Rain
8:31 AM 42.8 °F 36.2 °F 41.0 °F 93% 29.85 in 5.0 mi SSE 12.7 mph - 0.00 in Rain Light Rain
8:39 AM 42.8 °F 37.0 °F 41.0 °F 93% 29.86 in 7.0 mi NNW 10.4 mph - 0.00 in Rain Light Rain
8:46 AM 39.2 °F 32.5 °F 37.4 °F 93% 29.86 in 9.0 mi WNW 10.4 mph 21.9 mph 0.00 in Rain Light Rain
8:53 AM 37.9 °F 28.9 °F 36.0 °F 93% 29.70 in 4.0 mi NW 16.1 mph 21.9 mph 0.01 in Rain Light Rain
9:15 AM 37.4 °F 28.2 °F 35.6 °F 93% 29.87 in 10.0 mi NW 16.1 mph - 0.01 in Rain Light Rain
9:53 AM 37.9 °F 31.5 °F 37.0 °F 97% 29.72 in 10.0 mi NNW 9.2 mph - 0.01 in Rain Light Rain
10:38 AM 41.0 °F 37.1 °F 39.2 °F 93% 29.87 in 10.0 mi NNW 5.8 mph - 0.01 in Rain Light Rain
10:53 AM 42.1 °F 38.4 °F 39.0 °F 89% 29.68 in 10.0 mi North 5.8 mph - 0.01 in   Overcast
11:53 AM 43.0 °F - 39.0 °F 86% 29.67 in 10.0 mi Calm Calm - 0.00 in   Overcast
12:53 PM 45.0 °F 36.9 °F 37.9 °F 76% 29.68 in 10.0 mi West 20.7 mph 24.2 mph 0.00 in Rain Light Rain
1:00 PM 44.6 °F 38.1 °F 37.4 °F 76% 29.87 in 8.0 mi WSW 13.8 mph 24.2 mph 0.00 in Rain Light Rain
1:14 PM 44.6 °F 39.7 °F 35.6 °F 71% 29.86 in 10.0 mi WSW 9.2 mph - 0.00 in Rain Light Rain
1:53 PM 46.0 °F 39.3 °F 36.0 °F 68% 29.67 in 10.0 mi SSW 16.1 mph - 0.00 in   Overcast
2:44 PM 41.0 °F 32.8 °F 35.6 °F 81% 29.88 in 2.5 mi WSW 16.1 mph 28.8 mph 0.01 in Rain Rain
2:53 PM 42.1 °F 33.1 °F 35.1 °F 76% 29.73 in 3.0 mi WSW 20.7 mph 25.3 mph 0.02 in Rain Light Rain
3:10 PM 39.2 °F 31.6 °F 33.8 °F 81% 29.89 in 8.0 mi WNW 12.7 mph 21.9 mph 0.00 in Rain Light Rain
3:30 PM 42.8 °F 34.8 °F 33.8 °F 70% 29.89 in 10.0 mi WNW 17.3 mph 23.0 mph 0.00 in   Overcast
3:53 PM 42.1 °F 33.6 °F 28.9 °F 60% 29.74 in 10.0 mi West 18.4 mph 26.5 mph 0.00 in   Overcast
4:53 PM 42.1 °F 32.6 °F 28.9 °F 60% 29.79 in 10.0 mi West 23.0 mph - N/A   Overcast
5:53 PM 41.0 °F 33.1 °F 28.0 °F 60% 29.82 in 10.0 mi West 15.0 mph 24.2 mph N/A   Overcast
6:53 PM 39.9 °F 31.1 °F 27.0 °F 60% 29.83 in 10.0 mi WNW 17.3 mph - N/A   Mostly Cloudy
7:53 PM 37.0 °F 26.4 °F 28.9 °F 73% 29.87 in 10.0 mi NNW 20.7 mph - N/A   Overcast
8:53 PM 35.1 °F 27.9 °F 28.9 °F 78% 29.95 in 10.0 mi NNW 9.2 mph - N/A   Overcast
9:53 PM 36.0 °F 29.0 °F 28.0 °F 73% 29.95 in 10.0 mi West 9.2 mph - N/A   Overcast
10:53 PM 37.0 °F 26.4 °F 24.1 °F 59% 29.92 in 10.0 mi West 20.7 mph 29.9 mph N/A   Scattered Clouds
11:53 PM 36.0 °F 25.3 °F 23.0 °F 59% 29.94 in 10.0 mi West 19.6 mph 25.3 mph N/A   Mostly Cloudy